Flag for U.S.A. Weather past 2 weeks in Wright, Florida, U.S.A.

Now
69 °F

Clear.


Feels Like: 69 °F
Forecast: 65 / 75 °F
Wind: 6 mph from South

Location: Hurlburt Field

Current Time: Apr 1, 2015 at 10:47:12 PM

Latest Report: Apr 1, 2015 at 9:58 PM


Visibility: 10 mi

Pressure: 30.10 "Hg

Humidity: 84%

Dew point: 64 °F

Location of WrightLocation

Historic Weather in Wright — Graph

°F

Wright temperature yesterday

Maximum temperature yesterday: 78 °F (at 10:58 AM)
Minimum temperature yesterday: 66 °F (at 6:58 AM)
Average temperature yesterday: 71 °F

Past Weeks' High & Low Weather Summary

 TemperatureHumidityPressure
High80 °F (Mar 21, 11:58 AM)89% (Apr 1, 6:58 AM)30.37 "Hg (Apr 1, 6:58 AM)
Low40 °F (Mar 28, 6:58 AM)19% (Mar 27, 4:58 PM)29.78 "Hg (Mar 26, 10:58 PM)
Average67 °F69%30.05 "Hg
* Reported Mar 17 9:58 PM — Apr 1 8:58 PM, Wright, Weather by CustomWeather, © 2015

Note: Actual official high and low records may vary slightly from our data, if they occured in-between our weather recording intervals... More about our weather records

Advertising

Wright weather history for previous 24 hours

 ConditionsComfort  
Time TempWeatherWind HumidityBarometerVisibility
8:58 PM
Wed, Apr 1
70 °FClear.5 mph79%30.09 "Hg10 mi
7:58 PM70 °FPassing clouds.5 mph79%30.07 "Hg10 mi
6:58 PM70 °FSunny.8 mph80%30.06 "Hg10 mi
5:58 PM71 °FLight rain. Scattered clouds.8 mph77%30.06 "Hg10 mi
4:58 PM73 °FSunny.10 mph68%30.06 "Hg10 mi
3:58 PM75 °FSunny.13 mph62%30.06 "Hg10 mi
2:58 PM75 °FSunny.12 mph61%30.06 "Hg10 mi
1:58 PM75 °FSunny.10 mph61%30.07 "Hg10 mi
12:59 PM75 °FPassing clouds.13 mph61%30.10 "Hg10 mi
11:59 AM75 °FPassing clouds.13 mph61%30.11 "Hg10 mi
10:58 AM74 °FSunny.10 mph64%30.10 "Hg10 mi
9:58 AM75 °FSunny.7 mph61%30.10 "Hg10 mi
8:58 AM72 °FSunny.7 mph69%30.10 "Hg10 mi
7:58 AM67 °FPassing clouds.5 mph84%30.10 "Hg10 mi
6:58 AM64 °FPassing clouds.1 mph89%30.09 "Hg10 mi
5:58 AM64 °FPassing clouds.2 mph88%30.06 "Hg10 mi
4:58 AM67 °FClear.3 mph86%30.03 "Hg10 mi
3:58 AM68 °FClear.3 mph84%30.02 "Hg10 mi
2:58 AM68 °FClear.6 mph83%30.01 "Hg10 mi
1:58 AM69 °FClear.8 mph82%30.01 "Hg7 mi
12:58 AM69 °FClear.9 mph81%30.02 "Hg7 mi
11:58 PM
Tue, Mar 31
69 °FClear.10 mph82%30.03 "Hg7 mi
10:58 PM69 °FClear.12 mph84%30.06 "Hg7 mi
Weather by CustomWeather, © 2015

See weather overviewHow to use our weather pages